Regional Weather Roundup
Issued by NWS

Home | Current Version | Previous Version | Text Only | Print | Product List | Glossary Off
Versions: 1 2 3 4 5 6 7 8 9 10 11 12 13 14 15 16 17 18 19 20 21 22 23 24 25 26 27 28 29 30 31 32 33 34 35 36 37 38 39 40 41 42 43 44 45 46 47 48 49 50

000
ASUS45 KTFX 281204
RWRMT
MONTANA HOURLY WEATHER ROUNDUP
NATIONAL WEATHER SERVICE GREAT FALLS MT
604 AM MDT THU AUG 28 2014

NOTE: "FAIR" INDICATES FEW OR NO CLOUDS BELOW 12000 FEET WITH NO
SIGNIFICANT WEATHER AND/OR OBSTRUCTIONS TO VISIBILITY.

* THESE STATIONS ARE NOT UNDER NWS QUALITY CONTROL. THEY DO NOT
   REPORT WEATHER SUCH AS PRECIPITATION OR FOG.

MTZ001>007-043-281300-
WEST OF THE DIVIDE
CITY           SKY/WX    TMP DP  RH WIND       PRES   REMARKS
KALISPELL      CLEAR     46  46 100 CALM      30.00R
MISSOULA       CLEAR     52  46  80 CALM      30.09R
BUTTE          CLEAR     45  41  86 SE3       30.20S
MULLAN PASS    MOCLDY    57  43  60 S8G21     30.15F
* LINCOLN      N/A       41  40  96 NE1        N/A
* LOOKOUT PASS N/A       59  43  56 S6G14      N/A
* POLSON       N/A       60  42  52 SE1        N/A
* RONAN APT    CLEAR     50  43  77 N/A        N/A
* SEELEY LAKE  N/A       41  39  93 N2         N/A
* THOMP F APT  CLEAR     47  40  77 NE4        N/A
$$

MTZ008-052>055-281300-
SOUTHWEST MONTANA
CITY           SKY/WX    TMP DP  RH WIND       PRES   REMARKS
BOZEMAN        CLEAR     48  43  83 SE3       30.14R
DILLON         CLEAR     50  43  77 S10       30.18R
W YELLOWSTONE  CLEAR     34  32  92 CALM      30.31R
* THREE FORKS  CLEAR     46  30  54 N/A        N/A
* BOULDER HILL N/A       55  37  51 SW9        N/A
* MONIDA PASS  N/A       44  37  76 N/A        N/A
* RAYNOLDS PAS N/A       47  29  50 SE9G14     N/A
* WHITEHALL    N/A       48  45  89 NW5        N/A
* WISE RIVER   N/A       42  39  89 W5         N/A
$$

MTZ009>010-012-014-046-048-049-054-281300-
EAST SLOPES AND CENTRAL MONTANA
CITY           SKY/WX    TMP DP  RH WIND       PRES   REMARKS
GREAT FALLS    CLEAR     57  46  67 SW10      30.00S
HELENA         CLEAR     54  46  74 CALM      30.08S
MALMSTROM AFB  CLEAR     63  46  54 W7        30.01R
* CONRAD       PTCLDY    54  50  86 SW5        N/A
* EAST GLACIER N/A       56  43  62 E1G6       N/A
* MONARCH      N/A       54  40  59 S6         N/A
* PENDROY      N/A       57  42  57 W7         N/A
* ROGERS PASS  N/A       59  40  50 E2G10      N/A
* SAINT MARY   N/A       65  41  42 S4G9       N/A
* SWEET GRASS  N/A       63  43  48 W11        N/A
$$

MTZ011-013-016-021-035-040-045-047-050-051-281300-
NORTH CENTRAL MONTANA
CITY           SKY/WX    TMP DP  RH WIND       PRES   REMARKS
HAVRE          CLEAR     54  50  86 SW12      29.92S
LEWISTOWN      CLEAR     52  45  77 SE9       30.04S
* CHESTER      N/A       51  46  83 N/A        N/A
* DENTON       N/A       54  48  80 S8         N/A
* GEYSER       N/A       59  44  58 N4         N/A
* JUDITH GAP   N/A       55  46  72 S4         N/A
* LOMA         N/A       60  49  67 W6         N/A
$$

MTZ017>020-022>027-061-062-281300-
NORTHEAST MONTANA
CITY           SKY/WX    TMP DP  RH WIND       PRES   REMARKS
GLASGOW        CLEAR     57  52  83 SE9       29.89S
GLENDIVE       CLEAR     55  55 100 W5        29.94S
JORDAN         CLEAR     54  52  93 W5        29.94R
SIDNEY         CLEAR     55  55 100 SW3       29.92R VSB 2 1/2
WOLF POINT     MOCLDY    54  50  86 CALM      29.90S
* BEAVER HILL  N/A       60  57  90 S9         N/A
* CIRCLE       N/A       55  52  90 N/A        N/A
* LINDSAY DVD  N/A       59  51  75 W6         N/A
* NAVAJO       N/A       61  48  62 SW11       N/A
$$

MTZ028>042-056>058-281300-
SOUTHCENTRAL AND SOUTHEAST MONTANA
CITY           SKY/WX    TMP DP  RH WIND       PRES   REMARKS
BAKER          FOG       54  54 100 SE6       29.98R
BILLINGS       FAIR      61  46  58 SW18      30.04R
LIVINGSTON     CLEAR     48  43  83 SW5       30.12R
MILES CITY     CLEAR     57  54  90 S5        29.96R
* LAUREL APT   CLEAR     54  43  67 N/A        N/A
* ROUNDUP APT  CLEAR     55  46  72 S13        N/A
* ALZADA       N/A       54  53  96 E2         N/A
* HYSHAM       N/A       61  47  60 W6         N/A
* LAME DEER    N/A       62  48  60 W8         N/A
* REED POINT   N/A       49  46  89 W7         N/A
* ROSCOE HILL  N/A       61  29  30 S9         N/A
$$

REGIONAL REPORTS...DAKOTAS
CITY           SKY/WX    TMP DP  RH WIND       PRES   REMARKS
WILLISTON      CLEAR     55  54  96 SW5       29.90S
DICKINSON      MOCLDY    54  52  93 S6        29.94S
BEACH          N/A       55  55 100 S7        29.95S
CROSBY         CLEAR     57  57 100 SW12      29.88S
TIOGA          CLEAR     55  55 100 S5        29.94S
WATFORD CITY   CLEAR     55  55 100 CALM      29.89S
BISMARCK       CLOUDY    63  61  93 NE3       29.95S
GRAND FORKS    MOCLDY    63  59  87 SE9       29.97F
FARGO          CLOUDY    66  59  78 SE12      29.99F
BUFFALO SD     MOCLDY    54  54 100 S3        29.93S
RAPID CITY     CLOUDY    61  59  93 NW5       30.00F
$$

REGIONAL REPORTS...WYOMING/IDAHO/WASHINGTON
CITY           SKY/WX    TMP DP  RH WIND       PRES   REMARKS
GILLETTE       CLOUDY    61  52  72 W6        30.06S
SHERIDAN       PTCLDY    50  45  83 S3        30.06R
CODY           CLEAR     57  45  64 S3        30.15R
YELLOWSTONE LA CLEAR     36  36 100 CALM      30.39R
SALMON         CLEAR     46  45  96 CALM      30.17S
MULLAN PASS    MOCLDY    57  43  60 S8G21     30.15S
SAND POINT     MOCLDY    54  54 100 CALM      29.94S
SPOKANE        FAIR      64  50  61 SW14      29.96R

$$



USA.gov is the U.S. government's official web portal to all federal, state and local government web resources and services.